Location: Central Coast
(33.3208°S, 151.2336°E)
Time: 18:20:42
(UTC+11:00)

N. Korean satellite - Pass Details

Date: 13 October 2017
Orbit: 459 x 517 km, 97.2° (Epoch: 18 October)

Event Time Altitude Azimuth Distance (km) Brightness Sun altitude
Rises 20:16:13 0° 182° (S) 2,672 10.6 -14.9°
Reaches altitude 10° 20:18:33 10° 193° (SSW) 1,773 9.9 -15.4°
Maximum altitude 20:21:51 28° 253° (WSW) 996 9.0 -16.0°
Drops below altitude 10° 20:25:06 10° 313° (NW) 1,737 9.7 -16.7°
Sets 20:27:21 0° 324° (NW) 2,606 10.4 -17.1°
